"2009-02-27 00:00:30",665625,10.75,302,4.418,1.437,8.28,103.0471,7.078,8.14,34.23,0,110.2,13.35,7.85,264.0
"2009-02-27 00:01:00",665626,9.8,297.5,7.603,1.35,9.04,103.0466,7.077,8.25,34.74,0,110.1,13.35,7.85,259.5
"2009-02-27 00:01:30",665627,10.12,294.9,7.659,1.403,7.946,103.052,7.09,8.05,33.73,0,110.1,13.35,7.87,256.9
"2009-02-27 00:02:00",665628,10.75,307.8,6.788,1.473,10.57,103.063,7.119,8.24,33.71,0,110.1,13.35,7.90,269.8
"2009-02-27 00:02:30",665629,11.32,315.2,6.588,1.179,10.82,103.0652,7.124,8.34,34.77,0,110.1,13.35,7.90,277.2
"2009-02-27 00:03:00",665630,11.89,306.8,4.816,0.971,11.12,103.0678,7.131,8.27,34.51,0,110.1,13.35,7.91,268.8
"2009-02-27 00:03:30",665631,10.57,292.6,4.937,1.208,7.472,103.072,7.142,8.13,33.94,0,110.1,13.35,7.92,254.6
"2009-02-27 00:04:00",665632,11.27,303.5,7.132,1.305,10.08,103.0777,7.156,8.26,33.97,0,110.2,13.35,7.93,265.5
"2009-02-27 00:04:30",665633,10.66,295.7,5.201,1.39,8.74,103.0816,7.166,8.21,34.1,0,110.1,13.35,7.94,257.7
"2009-02-27 00:05:00",665634,13.39,304.7,5.344,0.708,11.45,103.0816,7.166,8.34,33.68,0,110.2,13.35,7.94,266.7
"2009-02-27 00:05:30",665635,13.93,307,3.377,0.825,11.7,103.0816,7.166,8.38,33.6,0,110.1,13.35,7.94,269.0
"2009-02-27 00:06:00",665636,13.6,312.3,4.025,1.002,11.14,103.0816,7.166,8.37,33.39,0,110.1,13.35,7.94,274.3
"2009-02-27 00:06:30",665637,13.03,303.1,6.56,1.004,10.1,103.0816,7.166,8.31,33.48,0,110.1,13.35,7.94,265.1
"2009-02-27 00:07:00",665638,12.22,306.3,6.446,1.263,7.819,103.0816,7.166,8.09,33.42,0,110.1,13.35,7.94,268.3
"2009-02-27 00:07:30",665639,11.17,300.9,8.63,1.29,9.18,103.0816,7.166,8.36,33.63,0,110.1,13.35,7.94,262.9
"2009-02-27 00:08:00",665640,10.47,305.9,6.849,1.551,10.01,103.0875,7.181,8.29,33.82,0,110.1,13.35,7.96,267.9
"2009-02-27 00:08:30",665641,12.84,312.6,3.731,0.958,11.67,103.0861,7.178,8.41,34.1,0,110.1,13.36,7.95,274.6
"2009-02-27 00:09:00",665642,12.68,305.8,5.792,1.126,10.7,103.0966,7.204,8.35,33.18,0,110.1,13.36,7.98,267.8
"2009-02-27 00:09:30",665643,12.36,303.1,6.363,1.203,10.06,103.1016,7.217,8.37,33.51,0,110.1,13.36,7.99,265.1
"2009-02-27 00:10:00",665644,12.99,302.9,7.522,1.187,9.57,103.1084,7.235,8.32,32.87,0,110.1,13.36,8.01,264.9
"2009-02-27 00:10:30",665645,12.93,300.4,6.489,1.226,9.01,103.1152,7.252,8.24,33.09,0,110.1,13.36,8.03,262.4
"2009-02-27 00:11:00",665646,13.66,298.4,6.873,1.49,10.93,103.1155,7.253,8.37,33.52,0,110.1,13.36,8.03,260.4
"2009-02-27 00:11:30",665647,14.99,297.7,3.563,0.808,11.82,103.1155,7.253,8.42,32.48,0,110.1,13.36,8.03,259.7
"2009-02-27 00:12:00",665648,13.79,300.5,7.43,1.084,10.94,103.1155,7.253,8.4,32.42,0,110.1,13.36,8.03,262.5
"2009-02-27 00:12:30",665649,13.37,302.5,4.507,1.105,11.01,103.1155,7.253,8.43,32.51,0,110.1,13.36,8.03,264.5
"2009-02-27 00:13:00",665650,14.04,299.9,5.513,0.827,10.91,103.1155,7.253,8.41,32.72,0,110.1,13.36,8.03,261.9
"2009-02-27 00:13:30",665651,12.44,298.4,5.446,1.288,10.18,103.1158,7.253,8.42,32.86,0,110.1,13.36,8.03,260.4
"2009-02-27 00:14:00",665652,12.08,295.5,5.859,1.16,8.09,103.122,7.269,8.36,32.99,0,110.1,13.36,8.05,257.5
"2009-02-27 00:14:30",665653,12.64,294.7,6.372,1.526,9.38,103.1296,7.289,8.41,33.04,0,110.1,13.36,8.07,256.7
"2009-02-27 00:15:00",665654,13.43,298.8,6.185,1.204,10.78,103.1375,7.309,8.4,32.99,0,110.1,13.36,8.09,260.8
"2009-02-27 00:15:30",665655,13.09,303,7.086,1.259,10.88,103.1437,7.325,8.49,33.13,0,110.1,13.36,8.10,265.0
"2009-02-27 00:16:00",665656,13.72,300.6,4.389,0.97,11.59,103.1465,7.332,8.53,33.33,0,110.1,13.36,8.11,262.6
"2009-02-27 00:16:30",665657,14.29,295.6,3.566,1.04,11.58,103.1485,7.337,8.52,33.3,0,110.1,13.36,8.11,257.6
"2009-02-27 00:17:00",665658,13.84,299.4,2.535,1.002,11.19,103.1493,7.339,8.55,32.65,0,110.1,13.36,8.12,261.4
"2009-02-27 00:17:30",665659,13.88,299.8,4.341,0.752,11.2,103.1493,7.339,8.55,32.69,0,110.1,13.36,8.12,261.8
"2009-02-27 00:18:00",665660,13.78,299.4,4.398,0.859,10.78,103.1493,7.339,8.55,32.69,0,110.1,13.36,8.12,261.4
"2009-02-27 00:18:30",665661,12.78,298.5,4.895,0.772,10.67,103.1493,7.339,8.56,32.91,0,110.1,13.36,8.12,260.5
"2009-02-27 00:19:00",665662,11.17,293.6,7.767,1.322,8.15,103.1493,7.339,8.42,33.32,0,110.1,13.36,8.12,255.6
"2009-02-27 00:19:30",665663,10.86,289.6,4.364,0.523,6.371,103.1493,7.339,8.28,33.6,0,110.1,13.36,8.12,251.6
"2009-02-27 00:20:00",665664,10.52,302.7,5.334,1.031,7.312,103.1482,7.336,8.31,34.24,0,110.1,13.36,8.11,264.7
"2009-02-27 00:20:30",665665,12.22,304.1,6.271,1.427,10.69,103.1321,7.295,8.53,34.7,0,110.1,13.36,8.07,266.1
"2009-02-27 00:21:00",665666,13.66,300,4.68,0.94,12.26,103.1155,7.253,8.58,33.58,0,110.1,13.36,8.03,262.0
"2009-02-27 00:21:30",665667,14.01,300.7,5.51,0.618,12.26,103.1158,7.253,8.54,33.09,0,110.1,13.36,8.03,262.7
"2009-02-27 00:22:00",665668,13.5,300.8,5.625,1.256,11.14,103.1158,7.253,8.54,33.26,0,110.1,13.36,8.03,262.8
"2009-02-27 00:22:30",665669,14.47,301.2,6.057,0.902,10.93,103.1155,7.253,8.51,33.17,0,110.1,13.36,8.03,263.2
"2009-02-27 00:23:00",665670,13.02,298.9,5.776,1.334,10.47,103.1155,7.253,8.47,32.89,0,110.1,13.36,8.03,260.9
"2009-02-27 00:23:30",665671,11.75,295.8,6.017,1.343,7.513,103.1155,7.253,8.32,33.2,0,110.1,13.36,8.03,257.8
"2009-02-27 00:24:00",665672,14.13,303,9.73,1.718,9.8,103.1155,7.253,8.45,33.37,0,110.1,13.36,8.03,265.0
"2009-02-27 00:24:30",665673,15.38,307.2,8.52,1.38,11.29,103.1155,7.253,8.54,32.52,0,110.2,13.36,8.03,269.2
"2009-02-27 00:25:00",665674,14.15,313.5,4.533,1.062,12.04,103.1155,7.253,8.55,32.86,0,110.1,13.36,8.03,275.5
"2009-02-27 00:25:30",665675,13.28,309.4,3.148,1.006,11.71,103.1158,7.253,8.55,33.51,0,110.1,13.36,8.03,271.4
"2009-02-27 00:26:00",665676,12.8,309.3,5.564,0.946,11.59,103.1172,7.257,8.54,33.85,0,110.1,13.36,8.03,271.3
"2009-02-27 00:26:30",665677,13.51,302.7,6.318,1.123,10.35,103.1178,7.259,8.49,32.64,0,110.1,13.36,8.04,264.7
"2009-02-27 00:27:00",665678,14.17,301.9,6.375,1.461,10.44,103.1204,7.265,8.44,33.06,0,110.1,13.36,8.04,263.9
"2009-02-27 00:27:30",665679,13.66,298.9,6.864,1.282,8.77,103.1219,7.269,8.37,32.62,0,110.1,13.37,8.05,260.9
"2009-02-27 00:28:00",665680,14.77,307.5,4.172,1.093,11.41,103.1251,7.277,8.46,32.58,0,110.1,13.37,8.05,269.5
"2009-02-27 00:28:30",665681,14.1,305,5.288,0.841,11.83,103.1263,7.28,8.53,33.1,0,110.1,13.37,8.06,267.0
"2009-02-27 00:29:00",665682,13.89,307.8,3.352,0.939,11.74,103.1194,7.263,8.53,33.37,0,110.1,13.37,8.04,269.8
"2009-02-27 00:29:30",665683,13.72,303.2,5.99,1.152,11.19,103.1036,7.222,8.5,32.77,0,110.1,13.37,8.00,265.2
"2009-02-27 00:30:00",665684,13.9,301.5,6.082,1.202,10.6,103.1031,7.221,8.37,31.38,0,110.1,13.37,8.00,263.5
"2009-02-27 00:30:30",665685,13.32,300.9,6.522,1.318,10.35,103.1057,7.228,8.45,31.68,0,110.1,13.37,8.01,262.9
"2009-02-27 00:31:00",665686,13.48,304.9,4.22,0.985,11.5,103.109,7.236,8.45,31.96,0,110.1,13.37,8.01,266.9
"2009-02-27 00:31:30",665687,12.56,304.1,6.504,1.169,10.11,103.1104,7.24,8.38,32.08,0,110.1,13.37,8.02,266.1
"2009-02-27 00:32:00",665688,13.37,308.5,5.639,1.069,11.83,103.1113,7.242,8.46,32.8,0,110.1,13.37,8.02,270.5
"2009-02-27 00:32:30",665689,13.78,304.2,6.084,1.129,10.84,103.1139,7.249,8.42,31.77,0,110.1,13.37,8.03,266.2
"2009-02-27 00:33:00",665690,13.78,303.2,6.28,1.01,11.32,103.1157,7.253,8.43,31.39,0,110.1,13.37,8.03,265.2
"2009-02-27 00:33:30",665691,13.47,304.7,5.952,1.091,10.94,103.1165,7.255,8.41,31.44,0,110.1,13.37,8.03,266.7
"2009-02-27 00:34:00",665692,13.5,305.7,5.06,0.955,11.65,103.1162,7.255,8.46,31.77,0,110.1,13.37,8.03,267.7
"2009-02-27 00:34:30",665693,14.97,307.8,4.245,0.532,11.94,103.1165,7.255,8.49,31.76,0,110.2,13.37,8.03,269.8
"2009-02-27 00:35:00",665694,14.39,309.6,3.365,0.757,11.8,103.1165,7.255,8.48,31.7,0,110.1,13.37,8.03,271.6
"2009-02-27 00:35:30",665695,14.52,308.1,3.597,1.056,12.13,103.1165,7.255,8.5,31.23,0,110.1,13.37,8.03,270.1
"2009-02-27 00:36:00",665696,15.04,305.2,5.245,0.897,11.99,103.1165,7.255,8.51,30.06,0,110.1,13.37,8.03,267.2
"2009-02-27 00:36:30",665697,14.67,303.2,5.574,0.736,12.03,103.1264,7.281,8.49,29.36,0,110.1,13.37,8.06,265.2
"2009-02-27 00:37:00",665698,13.44,296.8,3.952,1.016,11.66,103.1453,7.329,8.54,28.96,0,110.1,13.37,8.11,258.8
"2009-02-27 00:37:30",665699,13.57,305.9,6.039,1.008,10.08,103.1504,7.342,8.45,29.71,0,110.1,13.37,8.12,267.9
"2009-02-27 00:38:00",665700,12.89,303.9,6.771,1.228,8.98,103.1504,7.342,8.37,31.18,0,110.1,13.37,8.12,265.9
"2009-02-27 00:38:30",665701,12.09,302.4,7.66,1.436,8.55,103.1504,7.342,8.31,31.35,0,110.1,13.37,8.12,264.4
"2009-02-27 00:39:00",665702,12.55,306.5,5.886,1.165,10.79,103.1504,7.342,8.51,31.21,0,110.1,13.37,8.12,268.5
"2009-02-27 00:39:30",665703,13.56,310.1,4.165,0.595,12.24,103.1504,7.342,8.49,31.17,0,110.1,13.37,8.12,272.1
"2009-02-27 00:40:00",665704,13.45,307.8,4.881,0.589,12.7,103.1504,7.342,8.57,30.76,0,110,13.37,8.12,269.8
"2009-02-27 00:40:30",665705,12.58,302.1,5.696,1.153,11.25,103.1504,7.342,8.45,30.18,0,110.1,13.37,8.12,264.1
"2009-02-27 00:41:00",665706,12.33,300.7,7.543,1.29,10.74,103.1504,7.342,8.52,30.19,0,110,13.38,8.12,262.7
"2009-02-27 00:41:30",665707,11.97,303.3,6.351,1.44,10.62,103.1504,7.342,8.5,30.21,0,110,13.38,8.12,265.3
"2009-02-27 00:42:00",665708,12.65,305.9,8.56,1.074,10.65,103.1529,7.348,8.47,30.79,0,110,13.38,8.13,267.9
"2009-02-27 00:42:30",665709,11.53,301.1,7.572,1.255,10.32,103.1552,7.354,8.49,30.12,0,110,13.39,8.13,263.1
"2009-02-27 00:43:00",665710,12.77,307.6,5.296,0.665,12.06,103.16,7.366,8.62,30.68,0,110,13.39,8.14,269.6
"2009-02-27 00:43:30",665711,11.99,304.4,6.665,1.176,11.15,103.1648,7.379,8.51,30.59,0,110,13.39,8.16,266.4
"2009-02-27 00:44:00",665712,11.89,310.1,4.507,0.734,11.77,103.1597,7.366,8.62,31.35,0,110,13.39,8.14,272.1
"2009-02-27 00:44:30",665713,11.16,304.6,6.118,1.178,10,103.1518,7.346,8.51,31.54,0,110,13.39,8.12,266.6
"2009-02-27 00:45:00",665714,10.2,296.3,6.358,0.968,8.38,103.1504,7.342,8.41,31.26,0,110,13.39,8.12,258.3
"2009-02-27 00:45:30",665715,11.62,303,6.793,1.275,10.64,103.1519,7.346,8.54,31.4,0,110,13.39,8.12,265.0
"2009-02-27 00:46:00",665716,12.19,299.5,4.737,0.946,11.81,103.1527,7.348,8.58,30.78,0,110,13.39,8.13,261.5
"2009-02-27 00:46:30",665717,11.61,299.1,6.611,1.079,11.54,103.1556,7.355,8.59,30.75,0,110,13.39,8.13,261.1
"2009-02-27 00:47:00",665718,12.09,303.7,4.473,0.725,11.75,103.1577,7.361,8.53,31.18,0,110,13.39,8.14,265.7
"2009-02-27 00:47:30",665719,11.88,298,6.091,1.269,10.52,103.1588,7.364,8.54,30.81,0,110,13.39,8.14,260.0
"2009-02-27 00:48:00",665720,10.7,294.8,4.4,0.836,8.04,103.1618,7.371,8.43,30.54,0,110,13.39,8.15,256.8
"2009-02-27 00:48:30",665721,11.6,303.7,6.178,1.182,10.98,103.1644,7.378,8.53,30.75,0,110,13.39,8.16,265.7
"2009-02-27 00:49:00",665722,11.77,303.6,6.524,1.308,10.68,103.1664,7.383,8.45,30.95,0,110,13.39,8.16,265.6
"2009-02-27 00:49:30",665723,11.36,312.3,4.097,0.625,12.07,103.1711,7.395,8.62,31.4,0,110,13.39,8.17,274.3
"2009-02-27 00:50:00",665724,11.54,306.4,6.574,1.162,11.1,103.1725,7.399,8.56,31.23,0,110,13.39,8.18,268.4
"2009-02-27 00:50:30",665725,9.89,299.5,5.9,1.426,9.55,103.1735,7.401,8.49,31.22,0,110,13.39,8.18,261.5
"2009-02-27 00:51:00",665726,9.97,300.9,5.224,1.071,10.22,103.1626,7.373,8.4,31.3,0,110,13.4,8.15,262.9
"2009-02-27 00:51:30",665727,10.3,301.9,6.673,1.465,9.79,103.1499,7.341,8.47,31.28,0,110,13.39,8.12,263.9
"2009-02-27 00:52:00",665728,10.66,300.9,7.066,1.652,10.13,103.148,7.336,8.48,31.48,0,110,13.39,8.11,262.9
"2009-02-27 00:52:30",665729,11.44,305.2,5.172,1.033,12.25,103.1483,7.336,8.6,31.63,0,110.1,13.39,8.11,267.2
"2009-02-27 00:53:00",665730,11.32,303.7,5.933,1.149,11.27,103.1497,7.34,8.51,31.63,0,110,13.39,8.12,265.7
"2009-02-27 00:53:30",665731,11.64,301.2,6.384,1.278,10.29,103.1515,7.345,8.35,31.34,0,110,13.39,8.12,263.2
"2009-02-27 00:54:00",665732,11.25,300.2,6.042,1.327,10.11,103.1515,7.345,8.44,31.52,0,110,13.39,8.12,262.2
"2009-02-27 00:54:30",665733,10.59,305.8,8.64,1.36,10.48,103.1515,7.345,8.45,31.91,0,110,13.39,8.12,267.8
"2009-02-27 00:55:00",665734,11.59,305.9,6.269,1.316,10.51,103.1515,7.345,8.5,31.57,0,110,13.39,8.12,267.9
"2009-02-27 00:55:30",665735,11.65,303.9,5.739,1.088,11.46,103.1509,7.343,8.48,31.54,0,110,13.39,8.12,265.9
"2009-02-27 00:56:00",665736,11.29,306.3,7.636,1.456,10.63,103.1503,7.342,8.48,31.43,0,110,13.39,8.12,268.3
"2009-02-27 00:56:30",665737,11.5,299.1,8.31,1.227,9.93,103.1447,7.327,8.33,31.64,0,110,13.4,8.11,261.1
"2009-02-27 00:57:00",665738,11.51,303,5.132,1.267,11.34,103.1407,7.317,8.42,31.67,0,110,13.4,8.09,265.0
"2009-02-27 00:57:30",665739,10.52,307.2,4.619,1.243,10.97,103.134,7.3,8.47,31.82,0,110,13.4,8.08,269.2
"2009-02-27 00:58:00",665740,11.6,307.1,4.881,1.107,11.26,103.1323,7.296,8.48,31.98,0,110,13.4,8.07,269.1
"2009-02-27 00:58:30",665741,11.06,307.7,5.847,1.513,10.9,103.1218,7.269,8.46,32.3,0,110,13.4,8.05,269.7
"2009-02-27 00:59:00",665742,10.85,300.1,6.899,1.175,9.14,103.1176,7.258,8.4,31.94,0,110,13.4,8.04,262.1
"2009-02-27 00:59:30",665743,12.09,303.8,7.704,1.158,10.86,103.1176,7.258,8.36,31.91,0,110,13.4,8.04,265.8
"2009-02-27 01:00:00",665744,12.32,304.7,5.911,1.015,11.39,103.1176,7.258,8.42,31.74,0,109.9,13.4,8.04,266.7
"2009-02-27 01:00:30",665745,12.41,307.3,4.156,0.787,12.31,103.1176,7.258,8.52,31.96,0,110,13.4,8.04,269.3
"2009-02-27 01:01:00",665746,11.89,307.2,4.643,1.022,11.64,103.1176,7.258,8.51,32.07,0,110,13.4,8.04,269.2
"2009-02-27 01:01:30",665747,10.77,306.7,7.054,1.02,11.02,103.1176,7.258,8.38,32.11,0,110,13.4,8.04,268.7
"2009-02-27 01:02:00",665748,10.28,300.2,7.145,1.346,9.21,103.1176,7.258,8.33,32.13,0,110,13.41,8.04,262.2
"2009-02-27 01:02:30",665749,10.66,300.8,6.341,1.359,9.16,103.1176,7.258,8.26,32.05,0,110,13.41,8.04,262.8
"2009-02-27 01:03:00",665750,11.4,304.7,6.06,1.175,10.77,103.1176,7.258,8.42,32.03,0,110,13.41,8.04,266.7
"2009-02-27 01:03:30",665751,11.75,309,3.679,0.796,12.19,103.115,7.252,8.48,32.38,0,110,13.41,8.03,271.0
"2009-02-27 01:04:00",665752,11.62,307.1,5.234,0.693,12.21,103.1068,7.231,8.47,32.49,0,110,13.41,8.01,269.1
"2009-02-27 01:04:30",665753,10.67,306.5,7.214,1.156,10.86,103.0973,7.206,8.41,32.44,0,110,13.41,7.98,268.5
"2009-02-27 01:05:00",665754,10.69,307.7,5.899,1.216,10.24,103.084,7.172,8.32,32.41,0,110,13.41,7.95,269.7
"2009-02-27 01:05:30",665755,9.58,303.5,5.451,1.05,8.98,103.0837,7.171,8.27,31.96,0,110,13.41,7.95,265.5
"2009-02-27 01:06:00",665756,10.7,306.5,6.39,1.193,10.68,103.0837,7.171,8.35,32.14,0,110,13.41,7.95,268.5
"2009-02-27 01:06:30",665757,11.03,311.8,4.53,0.533,12.46,103.0837,7.171,8.45,32.39,0,110,13.41,7.95,273.8
"2009-02-27 01:07:00",665758,10.64,311.6,5.036,0.926,11.57,103.084,7.172,8.47,32.48,0,110,13.41,7.95,273.6
"2009-02-27 01:07:30",665759,9.77,310.8,5.521,1.491,10.19,103.0837,7.171,8.26,32.4,0,109.9,13.41,7.95,272.8
"2009-02-27 01:08:00",665760,7.743,308.7,3.719,1.07,7.463,103.0846,7.174,8.17,32.87,0,110,13.41,7.95,270.7
"2009-02-27 01:08:30",665761,8.82,311.9,8.18,1.09,9.34,103.0843,7.173,8.24,32.99,0,109.9,13.41,7.95,273.9
"2009-02-27 01:09:00",665762,10.55,317.1,6.101,1.041,11.56,103.0767,7.154,8.36,32.91,0,110,13.41,7.93,279.1
"2009-02-27 01:09:30",665763,9.11,323.7,6.76,1.156,11.37,103.0641,7.121,8.38,33.23,0,110,13.41,7.90,285.7
"2009-02-27 01:10:00",665764,9.62,316,6.372,1.039,11.39,103.062,7.116,8.38,33.14,0,109.9,13.41,7.89,278.0
"2009-02-27 01:10:30",665765,8.58,309.2,5.39,1.217,8.72,103.0641,7.121,8.23,32.91,0,109.9,13.41,7.90,271.2
"2009-02-27 01:11:00",665766,9.3,313.8,6.021,1.148,10.79,103.0647,7.123,8.24,32.53,0,109.9,13.4,7.90,275.8
"2009-02-27 01:11:30",665767,7.945,321.3,5.997,0.983,9.09,103.0699,7.136,8.21,33.2,0,109.9,13.41,7.91,283.3
"2009-02-27 01:12:00",665768,8.51,324.4,4.367,1.418,10.11,103.0569,7.103,8.24,33.5,0,109.9,13.41,7.88,286.4
"2009-02-27 01:12:30",665769,10.06,324.1,6.493,1.069,11.56,103.042,7.065,8.28,32.9,0,109.9,13.41,7.84,286.1
"2009-02-27 01:13:00",665770,10.42,321.3,5.531,0.685,12.44,103.0415,7.064,8.33,33,0,109.9,13.41,7.84,283.3
"2009-02-27 01:13:30",665771,9.24,318.6,5.801,1.099,10.06,103.0518,7.09,8.16,32.01,0,109.9,13.41,7.87,280.6
"2009-02-27 01:14:00",665772,9.48,322.8,7.311,1.273,10.46,103.0786,7.159,8.21,31.34,0,109.9,13.41,7.94,284.8
"2009-02-27 01:14:30",665773,7.496,319.6,5.846,1.062,8.95,103.0804,7.163,8.17,32.12,0,109.9,13.42,7.94,281.6
"2009-02-27 01:15:00",665774,9.19,319.9,6.888,1.328,10.18,103.0795,7.161,8.2,31.83,0,110,13.42,7.94,281.9
"2009-02-27 01:15:30",665775,8.94,321.9,6.866,1.085,11.23,103.0844,7.173,8.31,32.14,0,109.9,13.42,7.95,283.9
"2009-02-27 01:16:00",665776,7.512,325.3,6.907,1.184,11.01,103.0836,7.171,8.31,32.97,0,109.9,13.42,7.95,287.3
"2009-02-27 01:16:30",665777,6.893,316.6,7.998,0.862,8.54,103.0842,7.173,8.18,33.07,0,109.9,13.42,7.95,278.6
"2009-02-27 01:17:00",665778,8.67,319.6,3.812,1.124,10.81,103.0842,7.173,8.28,32.87,0,109.9,13.42,7.95,281.6
"2009-02-27 01:17:30",665779,7.667,314,6.113,1.144,8.6,103.0785,7.158,8.12,33.21,0,109.9,13.42,7.94,276.0
"2009-02-27 01:18:00",665780,8.77,321.6,6.211,1.251,10.59,103.0573,7.104,8.22,33.14,0,109.9,13.42,7.88,283.6
"2009-02-27 01:18:30",665781,8.58,325.2,5.938,1.224,10.8,103.0522,7.091,8.23,33.44,0,109.9,13.42,7.87,287.2
"2009-02-27 01:19:00",665782,8.52,322.2,6.099,1.276,10.97,103.0508,7.088,8.27,33.45,0,109.9,13.43,7.86,284.2
"2009-02-27 01:19:30",665783,8.44,322.4,7.598,1.162,10.12,103.0508,7.088,8.09,32.99,0,109.9,13.43,7.86,284.4
"2009-02-27 01:20:00",665784,8.76,322.8,6.471,1.226,10.54,103.0508,7.088,8.12,32.87,0,109.9,13.43,7.86,284.8
"2009-02-27 01:20:30",665785,7.992,325.5,6.786,1.258,10.02,103.0508,7.088,8.15,33.45,0,109.9,13.43,7.86,287.5
"2009-02-27 01:21:00",665786,8.34,322.9,6.616,1.158,10.23,103.0455,7.074,8.18,33.28,0,109.9,13.43,7.85,284.9
"2009-02-27 01:21:30",665787,7.59,317.4,6.138,1.251,9.21,103.041,7.062,8.13,33.12,0,109.9,13.43,7.84,279.4
"2009-02-27 01:22:00",665788,8.2,322.5,6.752,1.111,10.15,103.0359,7.049,8.15,33.43,0,109.9,13.43,7.83,284.5
"2009-02-27 01:22:30",665789,7.188,317,5.612,1.192,8.57,103.0229,7.016,8.08,33.65,0,109.9,13.43,7.79,279.0
"2009-02-27 01:23:00",665790,7.41,319.4,6.536,1.2,9.66,103.017,7.001,8.2,33.82,0,109.9,13.43,7.78,281.4
"2009-02-27 01:23:30",665791,8.29,325.4,5.664,1.184,10.91,103.017,7.001,8.18,33.37,0,109.9,13.43,7.78,287.4
"2009-02-27 01:24:00",665792,7.421,323.3,6.55,1.218,9.6,103.017,7.001,8.14,33.35,0,109.9,13.43,7.78,285.3
"2009-02-27 01:24:30",665793,7.077,323.9,6.091,1.217,9.56,103.017,7.001,8.07,33.31,0,109.9,13.43,7.78,285.9
"2009-02-27 01:25:00",665794,7.224,324.3,6.24,1.284,9.99,103.017,7.001,8.14,33.63,0,109.9,13.43,7.78,286.3
"2009-02-27 01:25:30",665795,7.195,322.1,6.223,1.201,8.94,103.0161,6.999,7.94,33.78,0,109.9,13.43,7.78,284.1
"2009-02-27 01:26:00",665796,9.01,320,5.345,1.138,11.93,103.0164,6.999,8.16,33.03,0,109.9,13.43,7.78,282.0
"2009-02-27 01:26:30",665797,7.133,318.5,9.21,1.238,10.59,103.017,7.001,8.14,32.62,0,109.9,13.43,7.78,280.5
"2009-02-27 01:27:00",665798,6.95,338.8,6.24,1.107,10.37,103.0155,6.997,8.08,34.07,0,109.9,13.43,7.77,300.8
"2009-02-27 01:27:30",665799,3.862,318.6,8.35,0.978,7.211,102.9907,6.934,8.02,34.43,0,109.9,13.47,7.71,280.6
"2009-02-27 01:28:00",665800,7.135,332.9,12.81,0.766,9.91,102.983,6.914,8.05,33.54,0,109.9,13.43,7.69,294.9
"2009-02-27 01:28:30",665801,6.83,330.7,3.87,1.329,9.49,102.983,6.914,7.916,32.87,0,109.9,13.43,7.69,292.7
"2009-02-27 01:29:00",665802,7.753,331.9,5.819,1.023,11.11,102.983,6.914,8.15,33.66,0,109.9,13.43,7.69,293.9
"2009-02-27 01:29:30",665803,7.07,333.6,8.26,1.238,10.22,102.983,6.914,8.05,33.81,0,109.9,13.43,7.69,295.6
"2009-02-27 01:30:00",665804,8.06,328.4,4.016,1.216,11.26,102.9833,6.915,8.11,33.56,0,109.9,13.43,7.69,290.4
"2009-02-27 01:30:30",665805,7.04,316.3,7.785,0.971,7.659,102.983,6.914,7.927,33.26,0,109.9,13.43,7.69,278.3
"2009-02-27 01:31:00",665806,6.901,326.4,10.31,1.82,10.28,102.9836,6.916,7.994,33.09,0,109.9,13.43,7.69,288.4
"2009-02-27 01:31:30",665807,4.061,351.5,9.14,1.215,9.18,102.9729,6.888,7.998,35.22,0,109.9,13.44,7.66,313.5
"2009-02-27 01:32:00",665808,5.541,320.6,8.23,1.283,9.9,102.9455,6.818,7.999,34.9,0,109.9,13.44,7.59,282.6
"2009-02-27 01:32:30",665809,6.339,317.5,5.986,1.853,10.69,102.9238,6.763,8.02,34.53,0,109.9,13.44,7.54,279.5
"2009-02-27 01:33:00",665810,6.821,319.4,6.27,1.356,8.94,102.9334,6.787,7.878,33.32,0,109.9,13.44,7.56,281.4
"2009-02-27 01:33:30",665811,6.101,322,5.271,1.439,8.47,102.9535,6.839,7.777,33.28,0,109.9,13.44,7.61,284.0
"2009-02-27 01:34:00",665812,5.863,332.8,8.48,0.921,10.18,102.9573,6.848,7.953,33.77,0,109.9,13.44,7.62,294.8
"2009-02-27 01:34:30",665813,5.673,324.2,7.41,1.096,9.59,102.9576,6.849,7.869,33.75,0,109.9,13.44,7.63,286.2
"2009-02-27 01:35:00",665814,6.781,328.6,9,1.663,9.44,102.9602,6.856,7.978,33.75,0,109.9,13.44,7.63,290.6
"2009-02-27 01:35:30",665815,7.865,327.1,8.51,1.142,11.3,102.9625,6.862,7.996,33.46,0,109.9,13.44,7.64,289.1
"2009-02-27 01:36:00",665816,7.154,324.4,9.2,1.236,9.54,102.9724,6.887,8,33.25,0,109.9,13.44,7.66,286.4
"2009-02-27 01:36:30",665817,6.47,316.4,6.423,1.395,9.5,102.9937,6.942,7.97,33.22,0,109.9,13.44,7.72,278.4
"2009-02-27 01:37:00",665818,6.133,314.4,3.462,0.843,7.587,103.0014,6.961,7.932,33,0,109.9,13.44,7.74,276.4
"2009-02-27 01:37:30",665819,7.259,318.9,7.535,1.417,10.49,103.0037,6.967,8.02,32.86,0,109.9,13.44,7.74,280.9
"2009-02-27 01:38:00",665820,7.252,321.3,7.049,1.055,10.53,103.0106,6.985,7.974,32.79,0,109.9,13.44,7.76,283.3
"2009-02-27 01:38:30",665821,7.271,321.7,6.599,0.766,11.17,103.0239,7.019,8.12,33.04,0,109.9,13.44,7.80,283.7
"2009-02-27 01:39:00",665822,7.343,318.5,7.802,1.22,10.69,103.0372,7.053,8.11,32.87,0,109.9,13.44,7.83,280.5
"2009-02-27 01:39:30",665823,6.233,317.9,7.388,0.799,7.663,103.0429,7.067,7.933,32.97,0,109.9,13.44,7.84,279.9
"2009-02-27 01:40:00",665824,6.769,317.7,8.7,1.289,9.73,103.0401,7.06,7.999,32.88,0,109.9,13.44,7.84,279.7
"2009-02-27 01:40:30",665825,5.912,309.2,5.378,1.124,9.1,103.0472,7.078,8.04,32.2,0,109.9,13.44,7.86,271.2
"2009-02-27 01:41:00",665826,6.813,312.6,8.27,1.178,10.11,103.0535,7.094,8.2,32.19,0,109.9,13.44,7.87,274.6
"2009-02-27 01:41:30",665827,7.126,318.9,5.687,1.269,11.1,103.075,7.149,8.21,32.23,0,109.9,13.44,7.93,280.9
"2009-02-27 01:42:00",665828,6.688,318.3,8.06,0.99,10.9,103.0846,7.174,8.13,32.28,0,109.9,13.44,7.95,280.3
"2009-02-27 01:42:30",665829,4.945,309.3,2.541,0.951,7.201,103.0846,7.174,7.973,32.21,0,110,13.44,7.95,271.3
"2009-02-27 01:43:00",665830,6.734,319.2,9.04,1.27,9.58,103.0855,7.176,8.13,32.29,0,109.9,13.44,7.95,281.2
"2009-02-27 01:43:30",665831,6.744,319.9,9.1,1.201,10.12,103.0855,7.176,8.21,32.46,0,109.9,13.44,7.95,281.9
"2009-02-27 01:44:00",665832,7.202,321,7.688,1.238,11.28,103.0858,7.177,8.2,32.38,0,109.9,13.44,7.95,283.0
"2009-02-27 01:44:30",665833,7.331,318.6,4.18,1.108,11.81,103.0858,7.177,8.3,32.06,0,109.9,13.44,7.95,280.6
"2009-02-27 01:45:00",665834,5.628,315.3,5.653,1.373,9.36,103.0858,7.177,8.16,31.68,0,109.9,13.44,7.95,277.3
"2009-02-27 01:45:30",665835,4.878,314.8,7.055,0.749,8.18,103.0937,7.197,8.17,31.84,0,109.9,13.48,7.97,276.8
"2009-02-27 01:46:00",665836,5.979,318.5,8.42,0.963,8.8,103.109,7.236,8.09,31.74,0,109.9,13.44,8.01,280.5
"2009-02-27 01:46:30",665837,7.16,316,7.323,1.301,10.58,103.1149,7.251,8.3,31.82,0,109.9,13.44,8.03,278.0
"2009-02-27 01:47:00",665838,6.391,317.8,7.094,1.209,10.78,103.1197,7.263,8.31,31.48,0,109.9,13.45,8.04,279.8
"2009-02-27 01:47:30",665839,6.636,323.2,6.871,1.193,11.1,103.1197,7.263,8.4,31.88,0,109.9,13.45,8.04,285.2
"2009-02-27 01:48:00",665840,7.612,325.5,7.078,1.029,11.2,103.1197,7.263,8.27,31.65,0,109.9,13.45,8.04,287.5
"2009-02-27 01:48:30",665841,5.036,320.9,1.737,0.641,7.315,103.1197,7.263,8.11,31.48,0,109.9,13.45,8.04,282.9
"2009-02-27 01:49:00",665842,5.656,320.8,4.559,0.428,7.916,103.1197,7.263,8.25,31.68,0,109.9,13.48,8.04,282.8
"2009-02-27 01:49:30",665843,6.75,327.6,6.16,1.284,10.69,103.1197,7.263,8.26,31.71,0,109.9,13.45,8.04,289.6
"2009-02-27 01:50:00",665844,6.477,331.1,7.104,1.098,11.48,103.12,7.264,8.32,31.86,0,109.9,13.45,8.04,293.1
"2009-02-27 01:50:30",665845,6.452,326.1,4.652,1.104,11.08,103.1197,7.263,8.35,31.83,0,109.9,13.45,8.04,288.1
"2009-02-27 01:51:00",665846,7.607,327,7.744,1.179,11.1,103.1197,7.263,8.37,31.46,0,109.9,13.45,8.04,289.0